Tiempo cada hora Bartoszow

Hoy, 4 Marzo, Jueves

Tiempo Temperatura Precipitaciones Viento Presión Humedad
00:00 +6°C° 0 mm 4 mps 755 mmHg 66%
01:00 +6°C° 0 mm 4 mps 754 mmHg 67%
02:00 +6°C° 0 mm 4 mps 754 mmHg 70%
03:00 +6°C° 0 mm 5 mps 753 mmHg 74%
04:00 +6°C° 0 mm 5 mps 753 mmHg 77%
05:00 +5°C° 0 mm 5 mps 752 mmHg 81%
06:00 +5°C° 0 mm 5 mps 752 mmHg 85%
07:00 +5°C° 0 mm 5 mps 752 mmHg 88%
08:00 +6°C° 0 mm 5 mps 752 mmHg 83%
09:00 +7°C° 0 mm 5 mps 752 mmHg 77%
10:00 +9°C° 0 mm 6 mps 752 mmHg 72%
11:00 +9°C° 0 mm 6 mps 751 mmHg 72%
12:00 +9°C° 0 mm 6 mps 751 mmHg 72%
13:00 +9°C° 0 mm 6 mps 751 mmHg 72%
14:00 +9°C° 0.2 mm 5 mps 750 mmHg 76%
15:00 +8°C° 0.2 mm 5 mps 750 mmHg 79%
16:00 +7°C° 0.2 mm 4 mps 749 mmHg 82%
17:00 +6°C° 0.2 mm 4 mps 749 mmHg 82%
18:00 +5°C° 0.2 mm 4 mps 749 mmHg 81%
19:00 +4°C° 0.2 mm 4 mps 749 mmHg 81%
20:00 +4°C° 0 mm 4 mps 749 mmHg 80%
21:00 +3°C° 0 mm 4 mps 750 mmHg 80%
22:00 +3°C° 0 mm 4 mps 750 mmHg 79%
23:00 +2°C° 0.1 mm 3 mps 750 mmHg 82%

Mañana, 5 Marzo, Viernes

Tiempo Temperatura Precipitaciones Viento Presión Humedad
00:00 +2°C° 0.1 mm 3 mps 751 mmHg 85%
01:00 +1°C° 0.1 mm 3 mps 751 mmHg 88%
02:00 +1°C° 0.3 mm 3 mps 751 mmHg 90%
03:00 -1°C° 0.3 mm 4 mps 752 mmHg 92%
04:00 -1°C° 0.3 mm 4 mps 752 mmHg 94%
05:00 -2°C° 0.2 mm 4 mps 753 mmHg 92%
06:00 -2°C° 0.2 mm 4 mps 753 mmHg 89%
07:00 -3°C° 0.2 mm 4 mps 754 mmHg 87%
08:00 -2°C° 0.1 mm 4 mps 754 mmHg 81%
09:00 -1°C° 0.1 mm 4 mps 755 mmHg 75%
10:00 0°C° 0.1 mm 3 mps 756 mmHg 69%
11:00 +1°C° 0 mm 3 mps 756 mmHg 62%
12:00 +2°C° 0 mm 3 mps 756 mmHg 56%
13:00 +3°C° 0 mm 3 mps 757 mmHg 50%
14:00 +3°C° 0 mm 4 mps 757 mmHg 49%
15:00 +3°C° 0 mm 4 mps 757 mmHg 48%
16:00 +3°C° 0 mm 4 mps 757 mmHg 48%
17:00 +2°C° 0 mm 3 mps 757 mmHg 52%
18:00 +1°C° 0 mm 3 mps 758 mmHg 57%
19:00 +1°C° 0 mm 2 mps 759 mmHg 62%
20:00 -1°C° 0 mm 2 mps 759 mmHg 64%
21:00 -1°C° 0 mm 2 mps 760 mmHg 66%
22:00 -1°C° 0 mm 2 mps 760 mmHg 67%
23:00 -2°C° 0 mm 2 mps 761 mmHg 69%

Pasado mañana, 6 Marzo, Sábado

Tiempo Temperatura Precipitaciones Viento Presión Humedad
00:00 -2°C° 0 mm 2 mps 761 mmHg 71%
01:00 -3°C° 0 mm 2 mps 762 mmHg 72%
02:00 -3°C° 0 mm 2 mps 762 mmHg 74%
03:00 -3°C° 0 mm 2 mps 762 mmHg 75%
04:00 -3°C° 0 mm 2 mps 762 mmHg 76%
05:00 -3°C° 0 mm 2 mps 763 mmHg 76%
06:00 -3°C° 0 mm 2 mps 763 mmHg 76%
07:00 -1°C° 0 mm 1 mps 763 mmHg 75%
08:00 -2°C° 0 mm 2 mps 763 mmHg 67%
09:00 +1°C° 0 mm 2 mps 763 mmHg 59%
10:00 +2°C° 0 mm 2 mps 764 mmHg 51%
11:00 +2°C° 0 mm 2 mps 763 mmHg 46%
12:00 +3°C° 0 mm 2 mps 763 mmHg 41%
13:00 +4°C° 0 mm 2 mps 763 mmHg 37%
14:00 +3°C° 0 mm 3 mps 763 mmHg 37%
15:00 +3°C° 0 mm 3 mps 762 mmHg 38%
16:00 +3°C° 0 mm 3 mps 762 mmHg 39%
17:00 +2°C° 0 mm 3 mps 761 mmHg 44%
18:00 +1°C° 0 mm 3 mps 761 mmHg 49%
19:00 -1°C° 0 mm 2 mps 761 mmHg 54%
20:00 -1°C° 0 mm 2 mps 761 mmHg 55%
21:00 -1°C° 0 mm 2 mps 761 mmHg 56%
22:00 -1°C° 0 mm 2 mps 760 mmHg 57%
23:00 -1°C° 0 mm 3 mps 760 mmHg 56%

7 Marzo, Domingo

Tiempo Temperatura Precipitaciones Viento Presión Humedad
00:00 -1°C° 0 mm 3 mps 760 mmHg 56%
01:00 -1°C° 0 mm 3 mps 760 mmHg 56%
02:00 -1°C° 0 mm 3 mps 759 mmHg 56%
03:00 -2°C° 0 mm 3 mps 759 mmHg 57%
04:00 -2°C° 0 mm 3 mps 758 mmHg 57%
05:00 -2°C° 0 mm 3 mps 758 mmHg 58%
06:00 -2°C° 0 mm 3 mps 758 mmHg 59%
07:00 -2°C° 0 mm 3 mps 757 mmHg 60%
08:00 -1°C° 0 mm 4 mps 757 mmHg 57%
09:00 0°C° 0 mm 4 mps 757 mmHg 55%
10:00 +2°C° 0 mm 5 mps 757 mmHg 53%
11:00 +2°C° 0 mm 5 mps 756 mmHg 51%
12:00 +3°C° 0 mm 5 mps 756 mmHg 49%
13:00 +5°C° 0 mm 5 mps 756 mmHg 47%
14:00 +5°C° 0 mm 5 mps 755 mmHg 48%
15:00 +5°C° 0 mm 5 mps 754 mmHg 49%
16:00 +3°C° 0 mm 5 mps 754 mmHg 51%
17:00 +3°C° 0 mm 4 mps 754 mmHg 58%
18:00 +1°C° 0 mm 3 mps 754 mmHg 66%
19:00 +1°C° 0 mm 2 mps 754 mmHg 73%
20:00 +1°C° 0 mm 2 mps 754 mmHg 73%
21:00 0°C° 0 mm 3 mps 754 mmHg 74%
22:00 0°C° 0 mm 3 mps 754 mmHg 74%
23:00 -1°C° 0 mm 3 mps 754 mmHg 77%

8 Marzo, Lunes

Tiempo Temperatura Precipitaciones Viento Presión Humedad
00:00 -2°C° 0 mm 4 mps 754 mmHg 80%
01:00 -2°C° 0 mm 4 mps 754 mmHg 83%
02:00 -2°C° 0.1 mm 4 mps 753 mmHg 86%
03:00 -2°C° 0.1 mm 4 mps 753 mmHg 89%
04:00 -2°C° 0.1 mm 5 mps 753 mmHg 91%
05:00 -2°C° 0.1 mm 4 mps 754 mmHg 92%
06:00 -2°C° 0.1 mm 4 mps 754 mmHg 93%
07:00 -2°C° 0.1 mm 4 mps 754 mmHg 94%
08:00 -2°C° 0.2 mm 4 mps 754 mmHg 91%
09:00 -1°C° 0.2 mm 4 mps 755 mmHg 89%
10:00 -1°C° 0.2 mm 4 mps 755 mmHg 87%
11:00 +1°C° 0.1 mm 3 mps 755 mmHg 77%
12:00 +2°C° 0.1 mm 3 mps 756 mmHg 66%
13:00 +2°C° 0.1 mm 3 mps 756 mmHg 56%
14:00 +2°C° 0 mm 3 mps 756 mmHg 55%
15:00 +3°C° 0 mm 2 mps 756 mmHg 54%
16:00 +3°C° 0 mm 2 mps 756 mmHg 53%
17:00 +2°C° 0 mm 2 mps 756 mmHg 57%
18:00 +1°C° 0 mm 1 mps 757 mmHg 62%
19:00 0°C° 0 mm 1 mps 757 mmHg 67%
20:00 0°C° 0 mm 1 mps 758 mmHg 67%
21:00 0°C° 0 mm 1 mps 758 mmHg 67%
22:00 0°C° 0 mm 1 mps 758 mmHg 67%
23:00 0°C° 0 mm 1 mps 759 mmHg 68%

9 Marzo, Martes

Tiempo Temperatura Precipitaciones Viento Presión Humedad
00:00 0°C° 0 mm 1 mps 759 mmHg 69%
01:00 -1°C° 0 mm 1 mps 759 mmHg 69%
02:00 -1°C° 0 mm 1 mps 758 mmHg 69%
03:00 -1°C° 0 mm 1 mps 758 mmHg 69%
04:00 -1°C° 0 mm 1 mps 758 mmHg 68%
05:00 -1°C° 0 mm 1 mps 758 mmHg 67%
06:00 -1°C° 0 mm 1 mps 758 mmHg 66%
07:00 -1°C° 0 mm 1 mps 758 mmHg 65%
08:00 -1°C° 0 mm 2 mps 758 mmHg 57%
09:00 +2°C° 0 mm 2 mps 759 mmHg 49%
10:00 +3°C° 0 mm 2 mps 759 mmHg 41%
11:00 +4°C° 0 mm 2 mps 758 mmHg 38%
12:00 +5°C° 0 mm 2 mps 758 mmHg 35%
13:00 +5°C° 0 mm 3 mps 758 mmHg 32%
14:00 +5°C° 0 mm 3 mps 757 mmHg 34%
15:00 +6°C° 0 mm 2 mps 757 mmHg 37%
16:00 +6°C° 0 mm 2 mps 756 mmHg 39%
17:00 +4°C° 0 mm 2 mps 756 mmHg 45%
18:00 +2°C° 0 mm 3 mps 756 mmHg 51%
19:00 0°C° 0 mm 3 mps 756 mmHg 58%
20:00 0°C° 0 mm 3 mps 756 mmHg 58%
21:00 0°C° 0 mm 3 mps 755 mmHg 58%
22:00 -1°C° 0 mm 3 mps 755 mmHg 58%
23:00 -1°C° 0 mm 3 mps 755 mmHg 57%
Mostrar más

Necesitamos Su Consentimiento

Meteoprog y nuestros Proveedores de Servicios pueden almacenar y acceder a sus datos personales como cookies, identificadores de dispositivo u otras tecnologías similares de su dispositivo y procesar dichos datos para personalizar contenido y anuncios, además de ofrecer funciones de redes sociales y analizar el tráfico.

  • Almacenar y/o acceder a información en su dispositivo

    Se puede almacenar o acceder a cookies, identificadores de dispositivo u otra información de su dispositivo para los fines anteriormente indicados.

  • Anuncios y contenido personalizados, medición de anuncios y contenido, percepciones del público, y desarrollo de productos

    Los anuncios y el contenido pueden personalizarse en base a su perfil. Se pueden añadir más datos para personalizar mejor los anuncios y contenidos. Se puede medir el rendimiento de los anuncios y contenidos. Se puede obtener la percepción sobre el público que ha visto los anuncios y contenidos. Dichos datos pueden usarse para desarrollar o mejorar la experiencia del usuario, sistemas y software.

Al hacer clic en ‘Estoy De Acuerdo’ usted permitirá el uso de las cookies, identificadores de dispositivo, balizas web u otras tecnologías similares indicadas. Su configuración puede cambiarse desde el navegador de su dispositivo.

Para ciertos fines, los intereses legítimos pueden ser considerados por encima del consentimiento. Puede leer más sobre ello en nuestra Política de Privacidad y Cookies.